Location: Tel Aviv
(32.0670°N, 34.7670°E)
Time: 03:50:58
(UTC+03:00)

Tiros 1 - Pass Details

Date: 22 January 2022
Orbit: 629 x 663 km, 48.4° (Epoch: 26 May)

Event Time Altitude Azimuth Distance (km) Brightness Sun altitude
Rises 01:08:34 0° 285° (WNW) 2,988 - -69.0°
Reaches altitude 10° 01:11:56 10° 309° (NW) 2,073 - -68.3°
Maximum altitude 01:14:36 15° 343° (NNW) 1,778 - -67.8°
Drops below altitude 10° 01:17:15 10° 18° (NNE) 2,066 - -67.3°
Sets 01:20:37 0° 42° (NE) 2,971 - -66.7°
